KKP773 YSSY-YBCG

Flight info

Callsign KKP773
Flight time N/A
Altitude 39000
Route OLSEM Y193 BANDA Y43 GOMOL
Aircraft A332/H-SDE2FGHIJ4J5LP2RWXY/LB1D1

Departure

Time N/A
Airport Sydney Kingsford Smith International Airport (YSSY)

Arrival

Time 2026-04-29 09:17
Airport Gold Coast Airport (YBCG)
Time Latitude Longitude Altitude Speed Heading
2026-04-29 08:55 -29.61750 153.11531 27841 ft 457 kts 23°
2026-04-29 08:55 -29.58807 153.12862 27301 ft 453 kts 23°
2026-04-29 08:55 -29.55885 153.14184 26754 ft 449 kts 23°
2026-04-29 08:56 -29.52991 153.15493 26231 ft 445 kts 23°
2026-04-29 08:56 -29.50125 153.16788 25712 ft 441 kts 22°
2026-04-29 08:56 -29.47286 153.18070 25179 ft 436 kts 22°
2026-04-29 08:56 -29.44513 153.19321 24664 ft 432 kts 22°
2026-04-29 08:57 -29.41732 153.20575 24164 ft 427 kts 22°
2026-04-29 08:57 -29.38984 153.21814 23669 ft 422 kts 22°
2026-04-29 08:57 -29.36268 153.23037 23163 ft 417 kts 22°
2026-04-29 08:57 -29.33582 153.24247 22669 ft 412 kts 22°
2026-04-29 08:58 -29.30928 153.25441 22170 ft 408 kts 22°
2026-04-29 08:58 -29.28302 153.26622 21682 ft 403 kts 22°
2026-04-29 08:58 -29.25705 153.27788 21209 ft 398 kts 22°
2026-04-29 08:58 -29.23148 153.28937 20737 ft 393 kts 22°
2026-04-29 08:59 -29.20651 153.30058 20272 ft 388 kts 22°
2026-04-29 08:59 -29.18149 153.31181 19811 ft 384 kts 22°
2026-04-29 08:59 -29.15671 153.32291 19350 ft 381 kts 22°
2026-04-29 08:59 -29.13216 153.33391 18887 ft 377 kts 22°
2026-04-29 09:00 -29.10782 153.34482 18430 ft 374 kts 22°
2026-04-29 09:00 -29.08368 153.35563 17968 ft 371 kts 22°
2026-04-29 09:00 -29.05975 153.36634 17521 ft 368 kts 22°
2026-04-29 09:00 -29.03599 153.37697 17066 ft 365 kts 22°
2026-04-29 09:01 -29.01243 153.38748 16620 ft 362 kts 22°
2026-04-29 09:01 -28.98907 153.39792 16159 ft 359 kts 23°
2026-04-29 09:01 -28.96620 153.40815 15713 ft 356 kts 23°
2026-04-29 09:01 -28.94323 153.41841 15275 ft 353 kts 22°
2026-04-29 09:02 -28.92052 153.42855 14840 ft 349 kts 22°
2026-04-29 09:02 -28.89799 153.43859 14401 ft 346 kts 22°
2026-04-29 09:02 -28.87563 153.44855 13969 ft 343 kts 23°
2026-04-29 09:02 -28.85350 153.45843 13545 ft 341 kts 23°
2026-04-29 09:03 -28.83153 153.46822 13120 ft 337 kts 23°
2026-04-29 09:03 -28.80998 153.47782 12635 ft 337 kts 23°
2026-04-29 09:03 -28.78822 153.48751 12195 ft 334 kts 23°
2026-04-29 09:03 -28.76664 153.49709 11778 ft 332 kts 23°
2026-04-29 09:04 -28.74522 153.50662 11343 ft 329 kts 23°
2026-04-29 09:04 -28.72399 153.51606 10917 ft 326 kts 23°
2026-04-29 09:04 -28.70300 153.52538 10612 ft 319 kts 24°
2026-04-29 09:04 -28.68286 153.53431 10527 ft 303 kts 24°
2026-04-29 09:05 -28.66346 153.54291 10276 ft 296 kts 24°
2026-04-29 09:05 -28.64447 153.55134 10017 ft 291 kts 24°
2026-04-29 09:05 -28.62553 153.55975 9592 ft 292 kts 24°
2026-04-29 09:05 -28.60690 153.56799 9257 ft 290 kts 24°
2026-04-29 09:06 -28.58818 153.57626 8953 ft 287 kts 24°
2026-04-29 09:06 -28.56966 153.58448 8637 ft 285 kts 25°
2026-04-29 09:06 -28.55126 153.59265 8329 ft 283 kts 25°
2026-04-29 09:06 -28.53294 153.60073 8012 ft 282 kts 24°
2026-04-29 09:07 -28.51451 153.60815 7705 ft 280 kts 22°
2026-04-29 09:07 -28.49606 153.61520 7388 ft 278 kts 22°
2026-04-29 09:07 -28.47774 153.62213 7078 ft 277 kts 22°
2026-04-29 09:07 -28.45945 153.62901 6768 ft 276 kts 22°
2026-04-29 09:08 -28.44152 153.63575 6450 ft 274 kts 22°
2026-04-29 09:08 -28.42352 153.64256 6163 ft 272 kts 22°
2026-04-29 09:08 -28.40563 153.64929 5852 ft 269 kts 22°
2026-04-29 09:08 -28.38784 153.65586 5546 ft 268 kts 22°
2026-04-29 09:09 -28.37016 153.66232 5238 ft 266 kts 22°
2026-04-29 09:09 -28.35259 153.66870 4938 ft 264 kts 22°
2026-04-29 09:09 -28.33514 153.67505 4622 ft 263 kts 22°
2026-04-29 09:09 -28.31779 153.68136 4334 ft 261 kts 21°
2026-04-29 09:10 -28.30047 153.68754 4068 ft 264 kts 19°
2026-04-29 09:10 -28.28234 153.69016 3745 ft 275 kts 358°
2026-04-29 09:10 -28.26390 153.68389 3376 ft 275 kts 338°
2026-04-29 09:10 -28.24698 153.67462 3320 ft 265 kts 335°
2026-04-29 09:11 -28.23121 153.66556 3311 ft 245 kts 336°
2026-04-29 09:11 -28.21616 153.65697 3303 ft 241 kts 336°
2026-04-29 09:11 -28.20057 153.64825 3290 ft 256 kts 336°
2026-04-29 09:11 -28.18445 153.63927 3292 ft 260 kts 336°
2026-04-29 09:12 -28.16825 153.63025 3293 ft 259 kts 336°
2026-04-29 09:12 -28.15231 153.62055 3295 ft 262 kts 329°
2026-04-29 09:12 -28.13787 153.60839 3295 ft 263 kts 323°
2026-04-29 09:12 -28.12365 153.59536 3297 ft 262 kts 322°
2026-04-29 09:13 -28.10954 153.58232 3296 ft 261 kts 323°
2026-04-29 09:13 -28.09546 153.56927 3293 ft 262 kts 321°
2026-04-29 09:13 -28.08292 153.55430 3253 ft 260 kts 307°
2026-04-29 09:13 -28.07473 153.53657 3093 ft 249 kts 288°
2026-04-29 09:14 -28.07175 153.51795 2967 ft 234 kts 269°
2026-04-29 09:14 -28.07336 153.50058 2873 ft 216 kts 251°
2026-04-29 09:14 -28.07969 153.48624 2767 ft 194 kts 226°
2026-04-29 09:14 -28.08959 153.47662 2374 ft 188 kts 205°
2026-04-29 09:15 -28.10147 153.47188 2031 ft 173 kts 185°
2026-04-29 09:15 -28.11297 153.47413 1465 ft 173 kts 155°
2026-04-29 09:15 -28.12357 153.48037 1041 ft 168 kts 153°
2026-04-29 09:15 -28.13367 153.48648 643 ft 161 kts 154°
2026-04-29 09:16 -28.14305 153.49240 403 ft 147 kts 152°
2026-04-29 09:16 -28.15167 153.49777 188 ft 135 kts 153°
2026-04-29 09:16 -28.15959 153.50274 47 ft 123 kts 152°
2026-04-29 09:16 -28.16580 153.50662 31 ft 69 kts 150°
2026-04-29 09:17 -28.16807 153.50807 32 ft 28 kts 150°
2026-04-29 09:17 -28.16939 153.50914 32 ft 20 kts 113°
2026-04-29 09:17 -28.16909 153.51026 30 ft 1 kts 61°
2026-04-29 09:17 -28.16909 153.51028 30 ft 0 kts 61°
2026-04-29 09:18 -28.16908 153.51030 30 ft 0 kts 61°
2026-04-29 09:18 -28.16905 153.51035 30 ft 2 kts 61°
2026-04-29 09:18 -28.16892 153.51061 29 ft 6 kts 60°
2026-04-29 09:19 -28.16865 153.51115 30 ft 10 kts 62°
2026-04-29 09:19 -28.16880 153.51172 29 ft 7 kts 147°
2026-04-29 09:19 -28.16897 153.51190 29 ft 0 kts 117°
2026-04-29 09:19 -28.16894 153.51200 29 ft 0 kts 72°
2026-04-29 09:20 -28.16888 153.51205 29 ft 4 kts 50°
2026-04-29 09:20 -28.16870 153.51238 28 ft 5 kts 59°
2026-04-29 09:20 -28.16854 153.51270 29 ft 0 kts 60°
2026-04-29 09:20 -28.16852 153.51274 29 ft 1 kts 60°
2026-04-29 09:21 -28.16850 153.51277 29 ft 0 kts 60°